Location: Canfield
(41.0251°N, 80.7609°W)
Time: 14:21:51
(UTC+00:00)

Daily predictions for brighter satellites

Satellite Brightness Start Highest point End
(mag) Time Altitude Azimuth Time Altitude Azimuth Time Altitude Azimuth
Cosmos 2333 Rocket 4.1 12:03:47 10° NW 12:04:08 10° NW 12:04:29 10° NW
Cosmos 2219 Rocket 4.0 12:02:55 10° WNW 12:04:16 11° NW 12:05:38 10° NNW
Cosmos 1300 2.6 12:01:40 10° SSW 12:05:26 67° W 12:09:14 10° N
Cosmos 2228 2.9 12:01:56 10° S 12:06:12 79° W 12:10:27 10° N
Cosmos 1125 Rocket 3.9 12:01:48 10° NNW 12:07:08 72° ENE 12:12:25 10° SSE
USA 238 DEB 3.7 12:01:14 10° SW 12:07:46 88° WNW 12:14:39 10° NE
USA 238 3.7 12:01:22 10° SSW 12:07:54 88° NW 12:14:46 10° NE
Radarsat Rocket 4.5 12:02:06 10° NNE 12:09:56 79° WNW 12:16:46 10° SSW
Envisat 3.7 12:06:20 10° N 12:10:43 30° WNW 12:15:07 10° SW
FengYun 1-2 T 4.3 12:06:28 10° NNE 12:12:11 88° WNW 12:17:50 10° SSW
Cosmos 2142 Rocket 4.5 22:46:39 10° N 22:52:47 65° E 22:58:50 10° SSE
ATLAS 2AS CENTAUR R/B 4.4 22:47:22 10° W 22:54:19 32° NW 23:01:12 10° NNE
MOS 1 Rocket 4.2 22:53:17 10° NE 22:56:47 24° E 23:00:17 10° SSE
COSMOS 2455 2.9 22:53:46 10° SSW 22:59:45 71° ESE 23:05:46 10° NNE
Cosmos 1818 4.0 22:54:58 10° S 23:00:05 44° ESE 23:05:14 10° NE
Cosmos 1844 Rocket 3.2 22:56:02 10° S 23:01:15 39° ESE 23:06:28 10° NE
CZ-4C R/B 4.2 22:57:52 10° WNW 23:01:39 19° NNW 23:05:56 10° NNE
CZ-2D R/B 4.0 23:01:49 10° SE 23:05:11 30° ENE 23:08:34 10° N
ISS -3.8 23:04:39 10° SW 23:08:01 80° SE 23:11:14 11° NE
H-2A R/B 3.4 23:05:22 10° S 23:09:15 52° W 23:13:19 10° NNW
Aureole 2 Rocket 2.2 23:10:12 10° S 23:13:06 51° ESE 23:16:05 10° NNE
Meteor 2-10 Rocket 3.7 23:08:28 10° N 23:13:49 52° ENE 23:18:55 10° SSE
COSMO-SKYMED 1 2.8 23:09:39 10° NNE 23:13:53 50° E 23:18:05 10° S
CSL-04 DEB 4.4 23:10:16 10° NNE 23:14:27 76° ESE 23:18:30 10° S
CZ-4B R/B 3.7 23:10:07 10° S 23:15:36 68° WSW 23:21:14 10° NNW
TELKOM 3 4.2 23:18:30 10° W 23:20:38 32° NNW 23:22:20 14° NE
Cosmos 1777 Rocket 4.4 23:17:16 10° SSW 23:22:29 69° WNW 23:27:47 10° NNE
Cosmos 1538 Rocket 3.9 23:18:00 10° NNW 23:23:09 66° ENE 23:28:17 10° SSE
Cosmos 1689 Rocket 3.2 23:25:19 19° ENE 23:26:14 22° E 23:28:32 10° SSE
Lacrosse 5 2.4 23:22:57 10° NW 23:27:43 40° NE 23:31:50 13° ESE
Okean-O 3.3 23:24:29 10° SE 23:28:24 32° ENE 23:32:20 10° N
ATLAS 5 CENTAUR R/B 3.7 23:25:41 10° W 23:28:35 18° NW 23:31:44 10° N
Okean O Rocket 2.7 23:24:41 10° S 23:29:00 50° W 23:33:19 10° NNW
Cosmos 1455 2.7 23:27:10 10° N 23:30:44 37° ENE 23:34:19 10° SSE
Helios 1A Rocket 4.0 23:27:51 10° ESE 23:31:13 25° ENE 23:34:36 10° NNE
Cosmos 1340 4.0 23:29:46 10° SE 23:32:28 19° E 23:32:34 19° E
Aureole 3 3.2 23:33:28 10° N 23:36:34 35° ENE 23:39:22 10° SE
NOSS 2-1 (E) 4.2 23:34:08 10° S 23:36:51 22° ESE 23:37:25 21° E
BREEZE-M DEB (TANK) 4.1 23:34:45 10° W 23:37:15 26° SSW 23:40:43 10° SSE
Cosmos 1602 Rocket 4.2 23:34:54 10° SSE 23:38:43 31° E 23:41:52 14° NNE
Cosmos 1703 3.8 23:38:42 10° SSE 23:42:16 36° E 23:44:38 18° NE
YAOGAN 1 2.9 23:38:44 10° SE 23:42:48 42° ENE 23:46:54 10° N
ERS-2 2.0 23:39:14 10° NNE 23:42:51 64° ESE 23:46:27 10° S
CZ-4B R/B 2.1 23:39:38 10° N 23:42:55 53° WNW 23:46:07 10° SSW
H-2A R/B 4.1 23:40:03 10° N 23:43:50 28° WNW 23:47:33 10° SW
Cosmos 1892 Rocket 4.5 23:39:47 10° SSW 23:44:00 50° W 23:48:14 10° N
Meteor 2-1 Rocket 4.1 23:44:06 10° N 23:49:39 69° E 23:55:07 10° SSE
Cosmos 2263 Rocket 4.5 23:47:46 10° W 23:51:47 19° NW 23:55:49 10° N
